Location: Karwodrza
(49.9217°N, 21.0454°E)
Time: 03:26:59
(UTC+02:00)

ISS - Visible Passes

Search period start: 20 October 2019 00:00
Search period end: 29 October 2019 23:00
Orbit: 411 x 421 km, 51.6° (Epoch: 19 October)

Date Brightness Start Highest point End Pass type
(mag) Time Alt. Az. Time Alt. Az. Time Alt. Az.
25 Oct -1.0 06:02:39 10° S 06:05:00 18° SE 06:07:20 10° E visible
26 Oct -0.7 05:15:20 10° SSE 05:16:35 12° SE 05:17:50 10° ESE visible
27 Oct -2.3 05:01:02 10° SW 05:04:09 35° SSE 05:07:16 10° E visible
28 Oct -1.8 04:14:28 20° S 04:15:38 24° SE 04:18:27 10° E visible
29 Oct -0.9 03:28:10 15° ESE 03:28:10 15° ESE 03:29:22 10° E visible
29 Oct -3.5 05:01:04 18° WSW 05:03:25 67° SSE 05:06:47 10° ENE visible
